Back to catalog

COSMOS 422 DEB

AliveLEO
NORAD 38531·DEBRIS·🇷🇺 Russia

Launched May 22, 1971 from Plesetsk Cosmodrome

Loading…

Next Passes (next 24 hours)

TLE

FreshSource: Space-Track

Epoch: Sep 14, 2026, 21:09 UTC

1 38531U 71046C   26257.88147578  .00000223  00000-0  25106-3 0  9992
2 38531  74.0200 333.1548 0016712 290.4598  69.4728 13.76501240655311

Track COSMOS 422 DEB in real time with AllMySat

Download on the App Store